{"data":{"norad_id":65237,"intl_designator":"2025-179C","name":"STARLINK-34958","alt_names":[],"object_type":"PAYLOAD","status":"ACTIVE","operator":null,"country":"US","launch_date":"2025-08-18","launch_site_code":"AFWTR","launch_vehicle":null,"mission":null,"orbit_class":"UNKNOWN","rcs_meters":null,"size_class":null,"mass_kg":null,"dimensions":null,"purposes":["comms"],"wikipedia_slug":null,"has_3d_model":false,"image_url":null,"decayed_at":null,"tle_current":{"epoch":"2026-05-25T02:37:18.633216Z","epoch_age_seconds":61560,"freshness":"FRESH","line1":"1 65237U 25179C   26145.10924344  .00003478  00000+0  24493-3 0  9998","line2":"2 65237  97.4484 187.8669 0002497 120.1928 239.9547 15.05657797 43469","mean_motion":15.05657797,"eccentricity":0.0002497,"inclination_deg":97.4484,"raan_deg":187.8669,"arg_perigee_deg":120.1928,"mean_anomaly_deg":239.9547,"bstar":0.00024493,"rev_number":4346,"period_min":95.639261648243,"perigee_km":547.75740984569,"apogee_km":551.21706538996,"semimajor_km":6927.6242376178,"source":"CELESTRAK","updated_at":"2026-05-25T13:38:20.724231Z"}}}